Regional Weather Roundup
Issued by NWS

Home | Current Version | Previous Version | Text Only | Print | Product List | Glossary On
Versions: 1 2 3 4 5 6 7 8 9 10 11 12 13 14 15 16 17 18 19 20 21 22 23 24 25 26 27 28 29 30 31 32 33 34 35 36 37 38 39 40 41 42 43 44 45 46 47 48 49 50
000
ASUS43 KTOP 011108
RWRKS

WEATHER ROUNDUP FOR KANSAS
NATIONAL WEATHER SERVICE GOODLAND KS
600 AM CDT WED OCT 01 2014

NOTE:  "FAIR" INDICATES FEW OR NO CLOUDS BELOW 12,000 FEET WITH NO
SIGNIFICANT WEATHER AND/OR OBSTRUCTIONS TO VISIBILITY.

KSZ001>006-013>018-027>032-041>047-011200-
NORTHWEST KANSAS

CITY           SKY/WX    TMP DP  RH WIND       PRES   REMARKS
GOODLAND       CLEAR     47  43  86 NW7       29.82R
HILL CITY      FOG       62  61  96 N3        29.73S VSB 1/4
RUSSELL        FOG       59  58  96 NE5       29.70S VSB 1/4
$$

KSZ061>065-074>080-084>089-011200-
SOUTHWEST KANSAS

CITY           SKY/WX    TMP DP  RH WIND       PRES   REMARKS
DODGE CITY     CLEAR     55  44  66 N5        29.73R
GARDEN CITY    CLEAR     54  47  77 N9        29.74S
GREAT BEND     CLEAR     55  52  88 NW5       29.73R
LIBERAL        CLEAR     54  45  71 NW7       29.74R
PRATT          CLEAR     64  55  72 SE7       29.72S
$$

KSZ066>073-081>083-090>101-011200-
SOUTHEAST KANSAS

CITY           SKY/WX    TMP DP  RH WIND       PRES   REMARKS
CHANUTE        PTCLDY    68  61  78 S8        29.76S
COFFEYVILLE    MOCLDY    69  62  78 S9        29.76S
HUTCHINSON     PTCLDY    68  63  84 SE5       29.71S
MEDICINE LODGE   N/A     67  62  84 E5        29.70S
NEWTON         CLEAR     66  61  82 S9        29.74F
PARSONS        MOCLDY    70  62  76 S6        29.78R
WICHITA INTL   MOCLDY    70  64  81 S7        29.72S
WICHITA JABRA  PTCLDY    67  64  90 S6        29.72S
WICHITA MCCONL PTCLDY    69  68  97 SE8       29.72F
WINFIELD       MOCLDY    70  65  84 S12       29.74R
$$

KSZ007>012-019>026-033>040-048>060-102>105-011200-
NORTHEAST KANSAS

CITY           SKY/WX    TMP DP  RH WIND       PRES   REMARKS
CONCORDIA      MOCLDY    62  62 100 W5        29.70R FOG
EMPORIA        CLOUDY    68  64  87 S16G22    29.72F
LAWRENCE       CLOUDY    65  62  90 E6        29.75S
MANHATTAN      PTCLDY    70  65  84 S12       29.68F
MARYSVILLE     CLOUDY    63  63 100 CALM      29.70R
OLATHE IND     CLOUDY    67  61  81 S10       29.76R
OLATHE EXE     CLOUDY    66  60  81 S8        29.76R
SALINA         LGT RAIN  68  64  87 S10       29.70R
TOPEKA BILLARD CLOUDY    66  64  93 E6        29.74R
TOPEKA FORBES  MOCLDY    65  63  93 SE5       29.74S
$$



USA.gov is the U.S. government's official web portal to all federal, state and local government web resources and services.